| time (UTC) | temp F | wind direction | speed MPH | gust MPH | rain 1hr in | rain 24hr in | rain mn in | humidity % | barometer mb |
| 20260905114601 | 52 | 0.0 | 0.0 | 0.00 | 0.01 | 0.00 | 90 | 1018.2 | |
| 20260905113100 | 52 | 0.0 | 0.0 | 0.00 | 0.01 | 0.00 | 90 | 1018.2 | |
| 20260905111649 | 53 | 0.0 | 0.0 | 0.00 | 0.01 | 0.00 | 89 | 1018.2 | |
| 20260905110052 | 53 | 0.0 | 0.0 | 0.00 | 0.01 | 0.00 | 89 | 1018.3 | |
| 20260905104549 | 53 | 0.0 | 0.0 | 0.00 | 0.01 | 0.00 | 89 | 1018.1 | |
| 20260905103101 | 54 | 0.0 | 0.0 | 0.00 | 0.01 | 0.00 | 89 | 1018.0 | |
| 20260905101548 | 54 | 0.0 | 0.0 | 0.00 | 0.01 | 0.00 | 89 | 1018.0 | |
| 20260905100059 | 54 | 0.0 | 0.0 | 0.00 | 0.01 | 0.00 | 90 | 1017.9 | |
| 20260905094552 | 54 | 0.0 | 0.0 | 0.00 | 0.01 | 0.00 | 90 | 1017.9 | |
| 20260905093107 | 54 | 0.0 | 0.0 | 0.00 | 0.01 | 0.00 | 90 | 1018.0 | |
| 20260905091548 | 54 | 0.0 | 0.0 | 0.00 | 0.01 | 0.00 | 90 | 1017.9 | |
| 20260905090055 | 54 | 0.0 | 0.0 | 0.00 | 0.01 | 0.00 | 90 | 1017.8 | |
| 20260905084557 | 54 | 0.0 | 0.0 | 0.00 | 0.01 | 0.00 | 90 | 1017.8 | |
| 20260905083053 | 55 | 0.0 | 0.0 | 0.00 | 0.01 | 0.00 | 90 | 1017.7 | |
| 20260905081549 | 55 | 0.0 | 0.0 | 0.00 | 0.01 | 0.00 | 90 | 1017.8 | |
| 20260905080056 | 55 | 0.0 | 0.0 | 0.00 | 0.01 | 0.00 | 89 | 1017.7 | |
| 20260905074555 | 55 | 0.0 | 0.0 | 0.00 | 0.01 | 0.00 | 89 | 1017.7 | |
| 20260905073054 | 55 | 0.0 | 0.0 | 0.00 | 0.01 | 0.00 | 89 | 1017.6 | |
| 20260905071550 | 55 | 0.0 | 0.0 | 0.00 | 0.01 | 0.00 | 89 | 1017.4 | |
| 20260905064611 | 56 | 0.0 | 0.0 | 0.00 | 0.02 | 0.01 | 88 | 1017.3 | |
| 20260905063052 | 56 | 0.0 | 0.0 | 0.00 | 0.02 | 0.01 | 87 | 1017.2 | |
| 20260905061550 | 56 | 0.0 | 0.0 | 0.00 | 0.02 | 0.01 | 87 | 1017.0 | |
| 20260905060045 | 57 | 0.0 | 0.0 | 0.00 | 0.02 | 0.01 | 86 | 1017.0 | |
| 20260905054557 | 57 | 0.0 | 0.0 | 0.00 | 0.02 | 0.01 | 86 | 1017.0 | |
| 20260905053053 | 57 | 0.0 | 0.0 | 0.00 | 0.02 | 0.01 | 85 | 1016.8 | |
| 20260905051551 | 58 | 0.0 | 0.0 | 0.00 | 0.02 | 0.01 | 85 | 1016.7 | |
| 20260905050054 | 58 | 0.0 | 0.0 | 0.00 | 0.02 | 0.01 | 84 | 1016.8 | |
| 20260905044555 | 58 | 0.0 | 0.0 | 0.00 | 0.02 | 0.01 | 84 | 1017.0 | |
| 20260905043051 | 58 | 0.0 | 0.0 | 0.00 | 0.02 | 0.01 | 83 | 1016.6 | |
| 20260905041556 | 59 | 0.0 | 0.0 | 0.00 | 0.02 | 0.01 | 83 | 1016.9 | |
| 20260905040059 | 59 | 0.0 | 0.0 | 0.00 | 0.02 | 0.01 | 82 | 1016.9 | |
| 20260905034601 | 59 | 0.0 | 0.0 | 0.00 | 0.02 | 0.01 | 82 | 1016.8 | |
| 20260905033052 | 60 | 0.0 | 0.0 | 0.00 | 0.02 | 0.01 | 81 | 1016.8 | |
| 20260905031550 | 60 | 0.0 | 0.0 | 0.00 | 0.02 | 0.01 | 80 | 1016.6 | |
| 20260905030115 | 60 | 0.0 | 0.0 | 0.00 | 0.02 | 0.01 | 80 | 1016.4 | |
| 20260905024553 | 61 | 0.0 | 0.0 | 0.00 | 0.02 | 0.01 | 80 | 1016.3 | |
| 20260905023051 | 61 | 0.0 | 0.0 | 0.00 | 0.02 | 0.01 | 77 | 1016.2 | |
| 20260905021553 | 61 | 0.0 | 0.0 | 0.00 | 0.02 | 0.01 | 81 | 1016.1 | |
| 20260905020052 | 62 | 0.0 | 0.0 | 0.00 | 0.02 | 0.01 | 80 | 1016.2 | |
| 20260905014559 | 62 | 0.0 | 0.0 | 0.00 | 0.02 | 0.01 | 79 | 1016.0 | |
| 20260905013054 | 62 | 0.0 | 0.0 | 0.00 | 0.02 | 0.01 | 76 | 1016.0 | |
| 20260905011556 | 62 | 0.0 | 0.0 | 0.00 | 0.02 | 0.01 | 79 | 1015.8 | |
| 20260905010051 | 64 | 0.0 | 0.0 | 0.00 | 0.02 | 0.01 | 77 | 1015.5 | |
| 20260905004558 | 65 | 0.0 | 0.0 | 0.00 | 0.02 | 0.01 | 75 | 1015.6 | |
| 20260905003057 | 66 | 0.0 | 0.0 | 0.00 | 0.02 | 0.01 | 69 | 1015.3 | |
| 20260905001611 | 67 | 0.0 | 0.0 | 0.00 | 0.02 | 0.01 | 68 | 1015.2 | |
| 20260905000105 | 68 | 0.0 | 0.0 | 0.00 | 0.02 | 0.01 | 63 | 1015.2 | |
| 20260904234605 | 68 | 0.0 | 0.0 | 0.00 | 0.02 | 0.01 | 64 | 1015.1 | |
| 20260904233053 | 68 | 0.0 | 0.0 | 0.01 | 0.02 | 0.01 | 61 | 1015.1 | |
| 20260904231553 | 68 | 0.0 | 0.0 | 0.01 | 0.02 | 0.01 | 60 | 1014.7 | |
| 20260904230050 | 68 | 0.0 | 0.0 | 0.01 | 0.02 | 0.01 | 61 | 1014.6 | |
| 20260904224555 | 67 | 0.0 | 0.0 | 0.01 | 0.02 | 0.01 | 61 | 1014.7 | |
| 20260904223058 | 67 | 0.0 | 0.0 | 0.00 | 0.01 | 0.00 | 61 | 1014.5 | |
| 20260904221558 | 67 | 0.0 | 0.0 | 0.00 | 0.01 | 0.00 | 61 | 1014.6 | |
| 20260904220107 | 67 | 0.0 | 0.0 | 0.00 | 0.01 | 0.00 | 63 | 1014.6 | |
| 20260904214556 | 67 | 0.0 | 0.0 | 0.00 | 0.01 | 0.00 | 66 | 1014.5 | |
| 20260904213056 | 66 | 0.0 | 0.0 | 0.00 | 0.01 | 0.00 | 63 | 1014.4 | |
| 20260904211609 | 66 | 0.0 | 0.0 | 0.00 | 0.01 | 0.00 | 67 | 1014.3 | |
| 20260904210059 | 66 | 0.0 | 0.0 | 0.00 | 0.01 | 0.00 | 66 | 1014.4 | |
| 20260904204550 | 65 | 0.0 | 0.0 | 0.00 | 0.01 | 0.00 | 66 | 1014.4 | |
| 20260904203057 | 65 | 0.0 | 0.0 | 0.00 | 0.01 | 0.00 | 67 | 1014.4 | |
| 20260904201556 | 65 | 0.0 | 0.0 | 0.00 | 0.01 | 0.00 | 69 | 1014.4 | |
| 20260904200119 | 65 | 0.0 | 0.0 | 0.00 | 0.01 | 0.00 | 69 | 1014.5 | |
| 20260904194631 | 65 | 0.0 | 0.0 | 0.00 | 0.01 | 0.00 | 69 | 1014.6 | |
| 20260904193056 | 65 | 0.0 | 0.0 | 0.00 | 0.01 | 0.00 | 68 | 1014.5 | |
| 20260904191558 | 64 | 0.0 | 0.0 | 0.00 | 0.01 | 0.00 | 70 | 1014.6 | |
| 20260904190057 | 63 | 0.0 | 0.0 | 0.00 | 0.01 | 0.00 | 74 | 1014.6 | |
| 20260904184604 | 63 | 0.0 | 0.0 | 0.00 | 0.01 | 0.00 | 73 | 1014.8 | |
| 20260904183054 | 63 | 0.0 | 0.0 | 0.00 | 0.01 | 0.00 | 76 | 1014.7 | |
| 20260904181554 | 62 | 0.0 | 0.0 | 0.00 | 0.01 | 0.00 | 78 | 1014.7 | |
| 20260904180059 | 62 | 0.0 | 0.0 | 0.00 | 0.01 | 0.00 | 79 | 1014.6 | |
| 20260904174555 | 61 | 0.0 | 0.0 | 0.00 | 0.01 | 0.00 | 82 | 1014.7 | |
| 20260904173103 | 60 | 0.0 | 0.0 | 0.00 | 0.01 | 0.00 | 82 | 1014.7 | |
| 20260904171550 | 60 | 0.0 | 0.0 | 0.00 | 0.01 | 0.00 | 84 | 1014.7 | |
| 20260904170045 | 59 | 0.0 | 0.0 | 0.00 | 0.01 | 0.00 | 85 | 1014.8 | |
| 20260904164558 | 59 | 0.0 | 0.0 | 0.00 | 0.01 | 0.00 | 84 | 1014.8 | |
| 20260904163051 | 58 | 0.0 | 0.0 | 0.00 | 0.01 | 0.00 | 86 | 1014.8 | |
| 20260904161549 | 57 | 0.0 | 0.0 | 0.00 | 0.01 | 0.00 | 87 | 1014.7 | |
| 20260904160046 | 56 | 0.0 | 0.0 | 0.00 | 0.01 | 0.00 | 90 | 1014.7 | |
| 20260904154608 | 56 | 0.0 | 0.0 | 0.00 | 0.01 | 0.00 | 90 | 1014.6 | |
| 20260904153054 | 55 | 0.0 | 0.0 | 0.00 | 0.01 | 0.00 | 90 | 1014.3 | |
| 20260904151557 | 55 | 0.0 | 0.0 | 0.00 | 0.01 | 0.00 | 91 | 1014.3 | |
| 20260904150045 | 54 | 0.0 | 0.0 | 0.00 | 0.01 | 0.00 | 91 | 1014.1 | |
| 20260904144554 | 54 | 0.0 | 0.0 | 0.00 | 0.01 | 0.00 | 91 | 1014.0 | |
| 20260904143052 | 53 | 0.0 | 0.0 | 0.00 | 0.01 | 0.00 | 92 | 1013.9 | |
| 20260904141616 | 53 | 0.0 | 0.0 | 0.00 | 0.01 | 0.00 | 92 | 1013.7 | |
| 20260904140103 | 53 | 0.0 | 0.0 | 0.00 | 0.01 | 0.00 | 92 | 1013.8 | |
| 20260904134558 | 53 | 0.0 | 0.0 | 0.00 | 0.03 | 0.00 | 92 | 1013.6 | |
| 20260904133109 | 53 | 0.0 | 0.0 | 0.00 | 0.03 | 0.00 | 92 | 1013.3 | |
| 20260904131608 | 53 | 0.0 | 0.0 | 0.00 | 0.03 | 0.00 | 92 | 1013.4 | |
| 20260904130048 | 53 | 0.0 | 0.0 | 0.00 | 0.03 | 0.00 | 92 | 1013.2 | |
| 20260904124554 | 53 | 0.0 | 0.0 | 0.00 | 0.05 | 0.00 | 92 | 1013.0 | |
| 20260904123053 | 53 | 0.0 | 0.0 | 0.00 | 0.05 | 0.00 | 92 | 1013.0 | |
| 20260904121553 | 53 | 0.0 | 0.0 | 0.00 | 0.05 | 0.00 | 92 | 1013.0 | |
| 20260904120048 | 53 | 0.0 | 0.0 | 0.00 | 0.05 | 0.00 | 92 | 1012.7 |